User: anonymous   Login
Location: Unspecified
(0.0000°N, 0.0000°E)
Time: 11:09:21
(UTC+00:00)
Language:

SEEDS - Orbit

View from above orbital plane
View from above orbital plane
View from above satellite
View from above satellite

Ground track
Ground track

The orbit data is extracted from the following two-line orbital elements,

1 32791U 08021J   19348.43537412 +.00000223 +00000-0 +27927-4 0  9995
2 32791 097.5323 345.9261 0013476 009.1351 351.0111 14.90931275630667
Epoch (UTC): 14 December 2019 10:26:56
Eccentricity: 0.0013476
inclination: 97.5323°
perigee height: 585 km
apogee height: 604 km
right ascension of ascending node: 345.9261°
argument of perigee: 9.1351°
revolutions per day: 14.90931275
mean anomaly at epoch: 351.0111°
orbit number at epoch: 63066

The dashed part of the orbit path shows where the satellite is in the earth's shadow,  

DLR